QPF
0.00 0.00 0.00 0.00 0.00 0.00 0.00 0.00 0.00 0.00 0.00 0.00 0.00 0.00 0.00 0.00 0.00 0.00 0.00 0.00 0.00 0.00 0.00 0.00 0.00 0.00 0.00 0.00 0.00 0.00 0.00 0.00 0.00 0.00 0.00 0.00 0.00 0.00 0.00 0.02 0.01 0.01 0.00 0.00 0.00 0.00 0.00
0.00 0.00 0.00 0.00 0.00 0.00 0.00 0.00 0.00 0.00 0.00 0.00 0.00 0.00 0.00 0.00 0.00 0.00 0.00 0.00 0.00 0.00 0.00 0.00 0.00 0.00 0.00 0.00 0.00 0.00 0.00 0.00 0.00 0.00 0.00 0.00 0.00 0.00 0.00 0.00 0.00 0.00 0.00 0.00 0.00 0.00 0.00
0.00 0.00 0.00 0.00 0.00 0.00 0.00 0.00 0.00 0.00 0.00 0.00 0.00 0.00 0.00 0.00 0.00 0.00 0.00 0.00 0.00 0.00 0.00 0.00 0.00 0.00 0.00 0.00 0.00 0.00 0.00 0.00 0.00 0.00 0.00 0.00 0.00 0.00 0.02 0.02 0.01 0.00 0.00 0.00 0.00 0.00 0.00
0.00 0.00 0.00 0.00 0.00 0.00 0.00 0.00 0.00 0.00 0.00 0.00 0.00 0.00 0.00 0.00 0.00 0.00 0.00 0.00 0.00 0.00 0.00 0.00 0.00 0.00 0.00 0.00 0.00 0.00 0.00 0.00 0.00 0.00 0.00 0.00 0.00 0.00 0.01 0.00 0.00 0.01 0.01 0.00 0.00 0.00 0.00
0.00 0.00 0.00 0.00 0.00 0.00 0.00 0.00 0.00 0.00 0.00 0.00 0.00 0.00 0.00 0.00 0.00 0.00 0.00 0.00 0.00 0.00 0.00 0.00 0.00 0.00 0.00 0.00 0.00 0.00 0.00 0.00 0.00 0.00 0.00 0.00 0.00 0.00 0.00 0.00 0.00 0.02 0.07 0.03 0.00 0.00 0.00
0.00 0.00 0.00 0.00 0.00 0.00 0.00 0.00 0.00 0.00 0.00 0.00 0.00 0.00 0.00 0.00 0.00 0.00 0.00 0.00 0.00 0.00 0.00 0.00 0.00 0.00 0.00 0.00 0.00 0.00 0.00 0.00 0.00 0.00 0.00 0.00 0.00 0.00 0.00 0.00 0.00 0.00 0.03 0.07 0.01 0.00 0.00
0.00 0.00 0.00 0.00 0.00 0.00 0.00 0.00 0.00 0.00 0.00 0.00 0.00 0.00 0.00 0.00 0.00 0.00 0.00 0.00 0.00 0.00 0.00 0.00 0.00 0.00 0.00 0.00 0.00 0.00 0.00 0.00 0.00 0.00 0.00 0.00 0.00 0.00 0.00 0.00 0.00 0.00 0.01 0.02 0.00 0.00 0.00
0.00 0.00 0.00 0.00 0.00 0.00 0.00 0.00 0.00 0.00 0.00 0.00 0.00 0.00 0.00 0.00 0.00 0.00 0.00 0.00 0.00 0.00 0.00 0.00 0.00 0.00 0.00 0.00 0.00 0.00 0.00 0.00 0.00 0.00 0.00 0.00 0.00 0.00 0.00 0.00 0.00 0.01 0.02 0.01 0.00 0.00 0.00
0.00 0.00 0.00 0.00 0.00 0.00 0.00 0.00 0.00 0.00 0.00 0.00 0.00 0.00 0.00 0.00 0.00 0.00 0.00 0.00 0.00 0.00 0.00 0.00 0.00 0.00 0.00 0.00 0.00 0.00 0.00 0.00 0.00 0.00 0.00 0.00 0.00 0.00 0.00 0.00 0.00 0.00 0.00 0.02 0.02 0.02 0.01
0.00 0.00 0.00 0.00 0.00 0.00 0.00 0.00 0.00 0.00 0.00 0.00 0.00 0.00 0.00 0.00 0.00 0.00 0.00 0.00 0.00 0.00 0.00 0.00 0.00 0.00 0.00 0.00 0.00 0.00 0.00 0.00 0.00 0.00 0.00 0.00 0.00 0.00 0.00 0.00 0.00 0.01 0.00 0.00 0.05 0.11 0.08
0.00 0.00 0.00 0.00 0.00 0.00 0.00 0.00 0.00 0.00 0.00 0.00 0.00 0.00 0.00 0.00 0.00 0.00 0.00 0.00 0.00 0.00 0.00 0.00 0.00 0.00 0.00 0.00 0.00 0.00 0.00 0.00 0.00 0.00 0.00 0.00 0.00 0.00 0.00 0.00 0.00 0.00 0.00 0.00 0.00 0.04 0.09
0.00 0.00 0.00 0.00 0.00 0.00 0.00 0.00 0.00 0.00 0.00 0.00 0.00 0.00 0.00 0.00 0.00 0.00 0.00 0.00 0.00 0.00 0.00 0.00 0.00 0.00 0.00 0.00 0.00 0.00 0.00 0.00 0.00 0.00 0.00 0.00 0.00 0.00 0.00 0.00 0.00 0.00 0.00 0.00 0.00 0.00 0.00
0.00 0.00 0.00 0.00 0.00 0.00 0.00 0.00 0.00 0.00 0.00 0.00 0.00 0.00 0.00 0.00 0.00 0.00 0.00 0.00 0.00 0.00 0.00 0.00 0.00 0.00 0.00 0.00 0.00 0.00 0.00 0.00 0.00 0.00 0.00 0.00 0.00 0.00 0.00 0.00 0.00 0.00 0.00 0.00 0.00 0.00 0.00
0.00 0.00 0.00 0.00 0.00 0.00 0.00 0.00 0.00 0.00 0.00 0.00 0.00 0.00 0.00 0.00 0.00 0.00 0.00 0.00 0.00 0.00 0.00 0.00 0.00 0.00 0.00 0.00 0.00 0.00 0.00 0.00 0.00 0.00 0.00 0.00 0.00 0.00 0.00 0.00 0.00 0.00 0.00 0.00 0.00 0.00 0.00
0.00 0.00 0.00 0.00 0.00 0.00 0.00 0.00 0.00 0.00 0.00 0.00 0.00 0.00 0.00 0.00 0.00 0.00 0.00 0.00 0.00 0.00 0.00 0.00 0.00 0.00 0.00 0.00 0.00 0.00 0.00 0.00 0.00 0.00 0.00 0.00 0.00 0.00 0.00 0.00 0.00 0.00 0.00 0.01 0.00 0.00 0.00
0.00 0.00 0.00 0.00 0.00 0.00 0.00 0.00 0.00 0.00 0.00 0.00 0.00 0.00 0.00 0.00 0.00 0.00 0.00 0.00 0.00 0.00 0.00 0.00 0.00 0.00 0.00 0.00 0.00 0.00 0.00 0.00 0.00 0.00 0.00 0.00 0.00 0.00 0.00 0.00 0.00 0.00 0.00 0.02 0.00 0.00 0.00
0.00 0.00 0.00 0.00 0.00 0.00 0.00 0.00 0.00 0.00 0.00 0.00 0.00 0.00 0.00 0.00 0.00 0.00 0.00 0.00 0.00 0.00 0.00 0.00 0.00 0.00 0.00 0.00 0.00 0.00 0.00 0.00 0.00 0.00 0.00 0.00 0.00 0.00 0.00 0.00 0.00 0.00 0.00 0.00 0.00 0.00 0.00
0.00 0.00 0.00 0.00 0.00 0.00 0.00 0.00 0.00 0.00 0.00 0.00 0.00 0.00 0.00 0.00 0.00 0.00 0.00 0.00 0.00 0.00 0.00 0.00 0.00 0.00 0.00 0.00 0.00 0.00 0.00 0.00 0.00 0.00 0.00 0.00 0.00 0.00 0.00 0.00 0.00 0.00 0.00 0.00 0.00 0.00 0.01
0.00 0.00 0.00 0.00 0.00 0.00 0.00 0.00 0.00 0.00 0.00 0.00 0.00 0.00 0.01 0.01 0.00 0.00 0.00 0.00 0.00 0.00 0.00 0.00 0.00 0.00 0.00 0.00 0.00 0.00 0.00 0.00 0.00 0.00 0.00 0.00 0.00 0.00 0.00 0.00 0.00 0.00 0.00 0.00 0.00 0.00 0.00
0.00 0.00 0.00 0.00 0.00 0.00 0.00 0.00 0.00 0.00 0.00 0.00 0.00 0.00 0.01 0.01 0.00 0.00 0.00 0.00 0.00 0.00 0.00 0.00 0.00 0.00 0.00 0.00 0.00 0.00 0.00 0.00 0.00 0.00 0.00 0.00 0.00 0.00 0.00 0.00 0.00 0.00 0.00 0.00 0.00 0.00 0.00
0.00 0.00 0.00 0.00 0.00 0.00 0.00 0.00 0.00 0.00 0.00 0.00 0.00 0.02 0.04 0.01 0.00 0.00 0.00 0.00 0.00 0.00 0.00 0.00 0.00 0.00 0.00 0.00 0.00 0.00 0.00 0.00 0.00 0.00 0.00 0.00 0.00 0.00 0.00 0.00 0.00 0.00 0.00 0.00 0.00 0.00 0.00
0.00 0.00 0.00 0.00 0.00 0.00 0.00 0.00 0.00 0.00 0.00 0.00 0.00 0.00 0.02 0.05 0.01 0.00 0.00 0.00 0.00 0.00 0.00 0.00 0.00 0.00 0.00 0.00 0.00 0.00 0.00 0.00 0.00 0.00 0.00 0.00 0.00 0.00 0.00 0.00 0.00 0.00 0.00 0.00 0.00 0.00 0.00
0.00 0.00 0.00 0.00 0.00 0.00 0.00 0.00 0.00 0.00 0.00 0.00 0.00 0.00 0.01 0.05 0.02 0.02 0.01 0.00 0.00 0.00 0.00 0.00 0.00 0.00 0.00 0.00 0.00 0.00 0.00 0.00 0.00 0.00 0.00 0.00 0.00 0.00 0.00 0.00 0.00 0.00 0.00 0.00 0.00 0.00 0.00
0.00 0.00 0.00 0.00 0.00 0.00 0.00 0.00 0.00 0.00 0.00 0.00 0.00 0.00 0.00 0.04 0.02 0.03 0.00 0.00 0.00 0.00 0.00 0.00 0.00 0.00 0.00 0.00 0.00 0.00 0.00 0.00 0.00 0.00 0.00 0.00 0.00 0.00 0.00 0.00 0.00 0.00 0.00 0.00 0.00 0.00 0.00
0.00 0.00 0.00 0.00 0.00 0.00 0.00 0.00 0.00 0.00 0.00 0.00 0.00 0.00 0.00 0.01 0.02 0.02 0.02 0.00 0.01 0.00 0.00 0.00 0.00 0.00 0.00 0.00 0.00 0.00 0.00 0.00 0.00 0.00 0.00 0.00 0.00 0.00 0.00 0.00 0.00 0.00 0.00 0.00 0.00 0.00 0.00
0.00 0.00 0.00 0.00 0.00 0.00 0.00 0.00 0.00 0.00 0.00 0.00 0.00 0.00 0.00 0.01 0.02 0.02 0.03 0.00 0.02 0.01 0.00 0.00 0.00 0.00 0.00 0.00 0.00 0.00 0.00 0.00 0.00 0.00 0.00 0.00 0.00 0.00 0.00 0.00 0.00 0.00 0.00 0.00 0.00 0.00 0.00
0.00 0.00 0.00 0.00 0.00 0.00 0.00 0.00 0.00 0.00 0.00 0.00 0.00 0.00 0.00 0.00 0.01 0.01 0.01 0.01 0.03 0.01 0.00 0.00 0.00 0.00 0.00 0.00 0.00 0.00 0.00 0.00 0.00 0.00 0.00 0.00 0.00 0.00 0.00 0.00 0.00 0.00 0.00 0.00 0.00 0.00 0.00
0.00 0.00 0.00 0.00 0.00 0.00 0.00 0.00 0.00 0.00 0.00 0.00 0.00 0.00 0.00 0.00 0.00 0.00 0.00 0.00 0.01 0.02 0.01 0.00 0.00 0.00 0.00 0.00 0.00 0.00 0.00 0.00 0.00 0.00 0.00 0.00 0.00 0.00 0.00 0.00 0.00 0.00 0.00 0.00 0.00 0.00 0.00
0.00 0.00 0.00 0.00 0.00 0.01 0.00 0.00 0.00 0.00 0.00 0.00 0.00 0.00 0.00 0.00 0.00 0.00 0.00 0.00 0.00 0.01 0.01 0.00 0.00 0.00 0.00 0.00 0.00 0.00 0.00 0.00 0.00 0.00 0.00 0.00 0.00 0.00 0.00 0.00 0.00 0.00 0.00 0.00 0.00 0.00 0.00
MSLP
1020.65 1020.15 1019.79 1019.58 1019.49 1019.42 1019.16 1018.83 1018.46 1017.99 1017.56 1017.12 1016.57 1015.97 1015.36 1014.77 1014.20 1013.47 1012.78 1012.18 1011.54 1010.93 1010.25 1009.69 1009.24 1008.76 1007.77 1006.91 1003.13 1001.07 1001.19 1001.35 1001.90 1001.74 1001.75 1002.17 1002.00 1003.20 1005.22 1004.63 1004.04 1003.54 1002.07 1001.77 1001.63 1001.77 1001.94
1020.91 1020.52 1020.08 1019.83 1019.64 1019.52 1019.27 1018.92 1018.52 1018.02 1017.52 1017.06 1016.49 1015.91 1015.32 1014.71 1014.07 1013.33 1012.55 1011.91 1011.24 1010.56 1009.89 1009.49 1009.04 1008.87 1008.19 1005.36 1000.67 1000.57 1001.00 1001.46 1001.40 1001.37 1000.86 1000.85 1001.12 1002.10 1004.40 1005.89 1005.60 1002.92 1002.24 1001.98 1002.04 1002.43 1002.45
1021.17 1020.88 1020.54 1020.15 1019.93 1019.66 1019.34 1018.96 1018.57 1018.11 1017.53 1017.03 1016.47 1015.86 1015.29 1014.58 1013.86 1013.01 1012.21 1011.53 1010.78 1010.11 1009.41 1009.10 1008.78 1008.48 1006.88 1003.02 1000.16 1000.60 1000.32 1000.43 1000.50 1000.53 1000.23 1000.59 1000.03 1001.04 1003.52 1005.05 1004.02 1003.53 1004.09 1002.93 1002.71 1002.78 1003.40
1021.23 1021.00 1020.70 1020.36 1020.05 1019.71 1019.39 1018.95 1018.47 1017.94 1017.44 1016.90 1016.25 1015.63 1015.04 1014.30 1013.53 1012.75 1011.86 1011.09 1010.21 1009.46 1008.86 1008.74 1008.61 1008.06 1005.21 1000.84 1000.12 1000.05 1000.00 999.77 999.70 999.44 999.83 1000.05 999.77 1001.37 1002.92 1004.24 1004.83 1004.79 1006.31 1005.60 1003.88 1003.54 1004.34
1021.37 1021.10 1020.77 1020.43 1020.06 1019.72 1019.37 1018.95 1018.44 1017.88 1017.30 1016.68 1016.13 1015.53 1014.89 1014.07 1013.25 1012.44 1011.52 1010.37 1009.06 1008.55 1008.30 1008.36 1008.20 1007.33 1003.39 999.81 1000.05 999.48 999.63 999.59 999.41 999.22 999.22 999.46 999.77 1002.39 1003.73 1005.86 1006.94 1008.64 1008.83 1006.84 1004.60 1003.81 1004.27
1021.39 1021.14 1020.81 1020.45 1020.07 1019.68 1019.32 1018.86 1018.30 1017.76 1017.18 1016.61 1016.04 1015.45 1014.74 1013.86 1013.01 1012.24 1011.25 1009.21 1007.55 1007.92 1007.66 1007.59 1006.97 1006.09 1002.25 1000.03 999.25 999.15 999.13 999.22 999.44 999.26 999.33 1000.00 1001.29 1002.89 1004.63 1005.94 1008.41 1009.04 1008.48 1006.92 1005.09 1004.44 1004.32
1021.41 1021.16 1020.83 1020.49 1020.11 1019.71 1019.26 1018.73 1018.17 1017.66 1017.13 1016.54 1015.95 1015.22 1014.50 1013.64 1012.65 1012.24 1011.44 1009.07 1007.71 1007.48 1006.49 1005.26 1003.96 1002.55 999.93 999.14 998.79 998.70 998.92 999.17 999.21 999.35 999.85 1000.16 1001.80 1002.69 1003.52 1004.87 1006.60 1005.64 1007.16 1005.78 1004.02 1003.81 1004.33
1021.32 1021.03 1020.71 1020.37 1020.00 1019.56 1019.10 1018.70 1018.19 1017.66 1017.13 1016.60 1015.91 1015.09 1014.35 1013.34 1012.14 1011.45 1011.88 1009.98 1006.82 1005.32 1004.39 1003.47 1002.47 1001.75 1000.04 999.73 999.29 998.34 998.51 999.35 999.38 999.81 999.86 1000.18 1000.70 1000.67 1002.23 1003.17 1004.25 1004.85 1004.89 1003.98 1003.34 1003.33 1003.71
1021.19 1020.86 1020.57 1020.24 1019.83 1019.43 1019.03 1018.64 1018.17 1017.67 1017.15 1016.57 1015.89 1015.07 1014.22 1013.12 1011.59 1010.37 1009.73 1007.86 1005.49 1004.68 1004.26 1001.80 1000.73 1000.12 999.34 998.96 998.41 997.82 998.15 998.71 999.28 999.81 999.79 1000.02 999.67 999.56 1000.72 1001.63 1002.68 1003.26 1002.96 1003.54 1004.55 1004.68 1003.89
1021.13 1020.77 1020.46 1020.11 1019.72 1019.33 1018.90 1018.47 1018.02 1017.50 1016.98 1016.42 1015.86 1015.11 1014.31 1013.23 1011.09 1010.42 1008.25 1006.22 1004.81 1004.68 1004.04 1000.79 999.32 998.44 998.47 998.27 997.77 997.37 997.56 998.35 998.86 999.32 999.34 999.38 998.69 998.74 999.10 999.60 1000.74 1003.20 1002.84 1003.76 1005.58 1008.02 1008.47
1021.06 1020.75 1020.39 1020.01 1019.59 1019.18 1018.73 1018.26 1017.78 1017.25 1016.68 1016.19 1015.70 1015.10 1014.43 1014.56 1013.06 1010.87 1007.63 1006.40 1005.32 1005.01 1003.42 998.21 997.32 996.83 997.54 997.93 997.74 997.54 997.48 998.00 998.60 998.85 998.97 998.65 998.13 997.91 997.93 999.54 1000.31 1002.24 1002.85 1004.83 1007.53 1009.56 1010.34
1020.89 1020.57 1020.21 1019.88 1019.49 1019.03 1018.54 1018.07 1017.55 1016.99 1016.43 1015.84 1015.40 1014.93 1014.57 1012.88 1012.83 1009.75 1008.32 1006.91 1006.45 1005.35 1001.72 997.10 995.82 996.44 997.73 997.82 997.97 997.49 997.48 997.72 998.10 998.49 998.40 997.99 997.41 997.25 997.33 997.85 999.32 1001.34 1003.31 1005.89 1007.93 1009.73 1011.23
1020.67 1020.42 1020.07 1019.71 1019.32 1018.90 1018.43 1017.91 1017.35 1016.74 1016.08 1015.41 1014.82 1014.35 1014.56 1014.08 1010.89 1008.34 1008.56 1007.06 1006.67 1004.24 999.83 996.66 995.95 996.58 997.29 997.72 997.89 997.62 997.50 997.84 998.16 998.68 998.62 997.98 997.51 996.68 996.80 998.21 999.65 1001.24 1003.88 1006.71 1009.14 1010.82 1009.54
1020.57 1020.28 1019.96 1019.59 1019.21 1018.79 1018.33 1017.79 1017.18 1016.53 1015.79 1014.93 1013.99 1012.93 1011.54 1011.16 1009.83 1010.21 1009.31 1008.07 1005.98 1002.15 999.92 996.83 996.31 996.89 997.24 997.31 997.44 997.29 997.37 997.90 998.13 998.47 998.47 998.28 997.65 996.59 996.60 997.84 1000.34 1002.32 1004.38 1007.12 1010.47 1011.77 1009.53
1020.46 1020.14 1019.83 1019.51 1019.13 1018.70 1018.25 1017.70 1017.08 1016.35 1015.49 1014.59 1013.31 1010.97 1009.61 1008.46 1009.08 1009.81 1009.52 1007.67 1004.24 1001.62 999.12 998.02 996.82 996.77 997.16 996.97 996.89 997.06 996.98 997.42 997.81 997.74 998.28 997.83 997.22 996.36 996.55 997.66 999.22 1002.34 1004.85 1007.17 1010.76 1011.73 1010.33
1020.29 1019.98 1019.66 1019.37 1019.01 1018.60 1018.13 1017.56 1016.92 1016.18 1015.25 1014.26 1013.48 1011.01 1007.62 1006.29 1007.47 1008.85 1008.62 1006.15 1003.79 1001.34 999.82 999.48 998.59 996.88 996.83 996.70 996.66 996.33 996.18 996.43 996.92 996.84 997.02 997.27 997.36 996.61 996.62 997.11 998.86 999.81 1003.63 1006.95 1009.25 1009.77 1008.55
1020.10 1019.86 1019.56 1019.25 1018.88 1018.50 1018.07 1017.56 1016.98 1016.21 1015.04 1013.23 1012.90 1009.89 1004.69 1005.18 1006.71 1007.79 1006.77 1005.42 1003.78 1001.87 1001.83 1000.40 998.67 997.97 996.54 996.22 995.98 995.71 995.63 995.79 996.02 996.09 996.46 997.09 997.74 996.98 996.69 997.05 998.63 1000.03 1002.17 1004.28 1006.47 1008.00 1008.05
1019.94 1019.65 1019.30 1018.99 1018.70 1018.33 1017.96 1017.58 1017.11 1016.40 1015.31 1013.44 1012.14 1008.63 1003.14 1004.47 1006.10 1006.27 1005.64 1004.97 1003.80 1001.70 1001.58 1000.17 998.94 997.70 996.26 995.35 995.17 995.07 994.72 994.76 994.97 995.37 996.26 996.75 997.17 997.32 996.57 996.35 996.70 998.00 999.94 1001.97 1005.06 1005.47 1005.66
1019.80 1019.47 1019.13 1018.81 1018.51 1018.16 1017.85 1017.55 1017.23 1016.75 1016.37 1015.67 1012.92 1008.90 1004.60 1004.17 1005.20 1005.19 1004.74 1004.02 1002.75 1001.93 1000.42 999.47 998.51 996.57 994.77 994.06 994.55 994.21 993.91 993.70 994.01 994.71 995.49 996.14 997.18 997.50 996.86 996.75 996.60 997.77 999.24 1000.99 1002.44 1003.02 1004.76
1019.66 1019.28 1018.96 1018.66 1018.34 1018.01 1017.69 1017.42 1017.17 1016.80 1016.51 1016.14 1013.46 1009.54 1007.51 1005.91 1005.34 1004.97 1004.11 1002.98 1001.85 1000.72 999.73 998.79 997.62 996.03 994.72 994.11 993.43 993.55 993.39 993.03 993.45 994.14 994.67 995.60 996.84 997.29 997.26 996.66 996.77 997.78 998.90 1000.00 1000.89 1002.76 1003.14
1019.45 1019.15 1018.82 1018.47 1018.14 1017.85 1017.50 1017.22 1016.93 1016.50 1016.14 1016.27 1013.10 1009.95 1009.43 1007.66 1006.10 1005.29 1004.31 1002.91 1001.05 999.57 998.40 997.38 996.49 994.72 994.17 993.89 993.14 992.68 992.56 992.65 992.85 993.55 994.64 995.83 996.96 997.27 997.18 996.54 996.42 996.86 998.06 998.80 999.61 1000.37 1001.40
1019.25 1018.95 1018.59 1018.22 1017.92 1017.66 1017.32 1016.99 1016.68 1016.17 1015.32 1014.97 1012.49 1010.22 1009.51 1007.97 1007.23 1006.28 1004.15 1002.47 1001.06 998.86 997.17 995.62 994.60 993.72 993.36 993.63 993.11 991.92 991.83 992.43 992.83 993.85 994.73 995.51 996.92 997.58 997.34 996.59 996.74 997.03 996.84 997.50 997.99 998.76 999.99
1019.10 1018.81 1018.42 1018.01 1017.73 1017.48 1017.12 1016.84 1016.58 1016.14 1015.27 1013.89 1012.47 1010.70 1009.76 1008.02 1006.91 1006.87 1003.64 1001.87 999.88 997.82 995.85 994.40 993.55 993.24 993.23 993.50 992.60 992.07 991.36 991.75 992.32 993.56 994.77 995.93 997.09 998.53 998.00 997.00 996.81 996.00 995.39 996.57 997.24 997.67 998.98
1018.96 1018.66 1018.28 1017.86 1017.51 1017.30 1017.04 1016.70 1016.45 1016.19 1016.14 1015.91 1014.63 1013.42 1010.59 1007.89 1006.97 1005.93 1004.11 1001.47 999.50 996.04 995.02 993.94 993.45 993.44 993.90 993.10 992.50 991.82 991.40 991.76 992.30 993.36 994.33 995.92 997.58 998.59 998.25 998.51 997.29 994.86 994.40 994.88 996.30 997.41 998.72
1018.80 1018.47 1018.16 1017.73 1017.28 1017.01 1016.83 1016.51 1016.19 1015.99 1015.69 1015.23 1014.52 1013.62 1010.95 1008.63 1007.75 1006.06 1004.16 1002.50 999.43 997.58 994.44 994.54 993.80 993.81 993.77 993.51 993.00 992.44 992.25 992.45 992.94 993.53 994.51 995.59 997.26 998.85 998.90 998.51 996.58 994.84 994.51 994.87 996.00 997.82 998.34
1018.58 1018.30 1017.95 1017.53 1017.12 1016.74 1016.51 1016.28 1015.94 1015.66 1015.35 1014.75 1013.24 1012.54 1011.60 1009.44 1007.16 1006.18 1005.33 1004.04 1002.21 1000.78 995.97 995.69 994.57 994.22 994.48 994.35 993.83 993.56 993.16 993.12 993.50 994.01 994.48 995.66 996.71 998.60 999.04 998.65 997.24 995.38 994.47 994.49 995.71 998.54 998.59
1018.42 1018.09 1017.79 1017.33 1016.85 1016.46 1016.18 1016.02 1015.76 1015.39 1015.10 1014.88 1013.14 1012.33 1011.65 1009.59 1007.08 1006.41 1005.19 1004.80 1004.12 1001.84 998.55 997.19 996.11 995.26 995.35 995.48 995.17 994.68 994.02 993.65 993.99 994.54 995.23 996.26 997.12 997.95 998.27 997.74 996.09 994.46 994.33 994.65 996.28 998.41 998.44
1018.24 1017.89 1017.51 1017.15 1016.72 1016.32 1015.98 1015.75 1015.52 1015.22 1014.89 1014.65 1013.03 1011.88 1011.62 1009.67 1006.94 1006.41 1005.62 1005.10 1004.10 1003.01 1001.60 999.26 997.36 996.49 996.57 996.73 996.49 995.66 995.02 994.69 994.61 994.74 995.38 996.35 997.12 997.43 997.34 996.88 996.02 994.32 994.42 995.36 996.26 996.85 997.92
1017.92 1017.59 1017.23 1016.87 1016.52 1016.17 1015.80 1015.56 1015.35 1015.03 1014.75 1014.39 1013.00 1011.38 1010.60 1009.59 1007.51 1006.18 1004.89 1004.68 1004.29 1003.23 1003.28 1001.34 1000.12 998.79 998.26 998.40 998.18 997.37 996.49 995.66 995.56 995.74 995.14 995.76 996.12 996.48 996.15 995.76 994.79 994.19 994.34 994.65 995.05 997.12 998.63
Thickness
5698 5702 5705 5708 5709 5710 5714 5717 5721 5725 5729 5733 5739 5745 5751 5756 5763 5770 5778 5785 5793 5799 5807 5813 5819 5824 5835 5833 5852 5899 5899 5898 5896 5893 5879 5868 5858 5837 5816 5828 5840 5834 5855 5858 5860 5856 5850
5690 5693 5696 5699 5702 5704 5706 5710 5714 5719 5724 5728 5734 5740 5746 5752 5759 5768 5776 5784 5792 5799 5807 5812 5818 5821 5826 5821 5898 5904 5901 5894 5891 5887 5885 5881 5867 5859 5814 5810 5814 5859 5861 5860 5858 5844 5851
5682 5684 5687 5691 5693 5696 5699 5703 5708 5712 5718 5723 5729 5735 5741 5748 5756 5765 5775 5783 5792 5800 5808 5812 5817 5822 5828 5842 5902 5902 5903 5896 5899 5893 5882 5887 5893 5869 5849 5820 5852 5851 5820 5849 5851 5848 5834
5676 5678 5680 5684 5687 5690 5693 5698 5703 5708 5713 5718 5724 5731 5737 5745 5753 5762 5773 5782 5793 5801 5809 5812 5816 5821 5823 5888 5902 5899 5902 5897 5905 5906 5896 5898 5908 5882 5860 5858 5840 5832 5805 5788 5838 5843 5835
5669 5671 5673 5677 5680 5684 5687 5691 5697 5702 5707 5714 5720 5726 5733 5741 5750 5759 5771 5783 5797 5804 5809 5812 5815 5818 5825 5897 5881 5900 5904 5886 5896 5900 5908 5912 5901 5862 5851 5813 5800 5787 5750 5785 5821 5847 5834
5662 5664 5666 5670 5673 5677 5680 5685 5691 5696 5701 5708 5714 5721 5728 5738 5747 5756 5767 5787 5804 5804 5809 5814 5821 5811 5851 5862 5888 5897 5905 5901 5881 5886 5887 5879 5861 5839 5824 5805 5757 5755 5759 5785 5806 5832 5836
5655 5657 5659 5662 5666 5669 5673 5678 5684 5690 5695 5701 5708 5716 5725 5734 5745 5751 5760 5781 5790 5789 5805 5809 5822 5831 5861 5879 5894 5888 5899 5889 5883 5874 5848 5866 5834 5818 5830 5825 5805 5820 5786 5792 5836 5851 5834
5650 5652 5655 5657 5659 5663 5667 5672 5677 5682 5688 5694 5702 5711 5720 5731 5744 5753 5752 5765 5789 5808 5794 5827 5836 5840 5863 5868 5849 5880 5899 5863 5861 5837 5857 5848 5828 5861 5856 5853 5832 5824 5811 5832 5855 5856 5843
5644 5648 5650 5652 5655 5658 5662 5666 5671 5676 5681 5688 5695 5705 5716 5727 5743 5757 5765 5776 5808 5813 5785 5819 5844 5845 5856 5869 5857 5863 5883 5873 5856 5839 5847 5837 5859 5881 5866 5851 5841 5836 5834 5838 5832 5839 5851
5640 5643 5646 5648 5650 5653 5656 5660 5665 5670 5676 5683 5689 5698 5708 5721 5742 5749 5762 5791 5809 5810 5757 5801 5826 5846 5858 5865 5852 5887 5894 5875 5860 5838 5851 5850 5878 5873 5866 5867 5862 5812 5860 5846 5819 5781 5746
5636 5639 5641 5643 5646 5649 5652 5656 5661 5666 5673 5678 5684 5691 5701 5703 5717 5734 5767 5786 5800 5789 5719 5829 5839 5881 5866 5849 5862 5864 5894 5875 5847 5850 5856 5845 5865 5871 5869 5865 5869 5841 5855 5831 5800 5760 5758
5635 5636 5638 5640 5643 5646 5650 5653 5658 5664 5670 5676 5682 5688 5694 5709 5711 5740 5757 5774 5772 5735 5733 5818 5850 5839 5829 5844 5849 5865 5869 5884 5882 5858 5864 5865 5897 5893 5888 5898 5885 5876 5850 5824 5799 5776 5735
5633 5633 5635 5637 5639 5641 5645 5649 5654 5660 5666 5673 5680 5686 5687 5692 5717 5744 5748 5756 5722 5717 5810 5816 5828 5837 5831 5828 5836 5844 5843 5840 5828 5812 5820 5855 5865 5898 5908 5873 5878 5861 5821 5771 5763 5740 5758
5629 5629 5630 5632 5634 5636 5639 5643 5648 5654 5660 5668 5678 5690 5703 5706 5722 5722 5730 5723 5705 5770 5785 5836 5833 5829 5816 5832 5834 5842 5836 5826 5849 5844 5828 5817 5818 5877 5900 5884 5848 5839 5816 5773 5742 5724 5766
5626 5626 5626 5627 5628 5630 5632 5635 5640 5645 5652 5660 5672 5695 5706 5717 5715 5713 5707 5697 5729 5770 5810 5814 5826 5809 5809 5828 5835 5834 5835 5833 5846 5859 5822 5825 5838 5897 5899 5893 5874 5838 5801 5812 5745 5752 5751
5621 5621 5622 5621 5622 5623 5625 5628 5632 5636 5644 5652 5658 5678 5701 5720 5713 5701 5693 5705 5738 5784 5797 5790 5780 5813 5798 5815 5818 5827 5831 5851 5849 5871 5875 5855 5834 5881 5893 5901 5882 5872 5846 5780 5761 5755 5755
5617 5616 5615 5615 5615 5615 5617 5619 5622 5626 5634 5649 5651 5669 5714 5716 5703 5683 5683 5704 5732 5773 5772 5771 5780 5784 5816 5817 5827 5826 5831 5854 5867 5871 5878 5867 5850 5861 5886 5872 5853 5857 5834 5826 5808 5792 5749
5611 5610 5609 5609 5608 5608 5608 5609 5610 5615 5622 5636 5646 5655 5714 5708 5669 5673 5675 5695 5717 5751 5763 5769 5783 5794 5808 5830 5825 5830 5834 5853 5882 5882 5855 5870 5854 5835 5857 5898 5907 5892 5871 5849 5788 5808 5802
5604 5603 5602 5602 5601 5600 5599 5599 5600 5602 5603 5606 5626 5649 5691 5693 5656 5665 5680 5687 5716 5730 5753 5766 5775 5806 5837 5836 5814 5841 5851 5881 5886 5880 5860 5874 5840 5814 5846 5874 5895 5880 5872 5852 5844 5842 5807
5596 5595 5593 5592 5592 5591 5590 5591 5591 5593 5592 5595 5614 5636 5647 5665 5673 5668 5671 5682 5704 5741 5757 5772 5782 5807 5822 5825 5849 5836 5849 5878 5889 5887 5889 5885 5855 5843 5818 5847 5874 5858 5864 5863 5849 5811 5821
5587 5584 5583 5582 5582 5581 5581 5582 5583 5586 5587 5585 5610 5629 5629 5631 5654 5661 5668 5676 5700 5721 5762 5777 5778 5808 5817 5814 5830 5840 5859 5869 5885 5887 5884 5870 5837 5858 5862 5883 5885 5880 5865 5868 5855 5855 5825
5576 5573 5571 5571 5570 5570 5571 5572 5575 5579 5585 5586 5604 5621 5628 5638 5645 5649 5670 5679 5688 5721 5755 5771 5786 5818 5828 5818 5828 5842 5857 5856 5857 5872 5868 5875 5837 5854 5845 5876 5870 5863 5877 5877 5877 5871 5860
5562 5559 5557 5557 5557 5557 5559 5561 5565 5569 5576 5591 5603 5622 5624 5633 5645 5639 5674 5693 5713 5740 5768 5797 5809 5815 5817 5819 5848 5860 5884 5881 5877 5863 5856 5855 5840 5820 5823 5855 5858 5855 5879 5874 5876 5882 5868
5546 5542 5540 5540 5542 5543 5545 5548 5552 5557 5560 5563 5575 5586 5611 5632 5642 5647 5663 5686 5723 5770 5766 5798 5813 5805 5812 5847 5859 5871 5882 5879 5879 5871 5873 5848 5837 5827 5826 5832 5804 5879 5915 5908 5887 5887 5884
5527 5524 5523 5523 5526 5529 5532 5536 5541 5546 5553 5560 5570 5581 5605 5620 5636 5649 5672 5678 5710 5730 5782 5786 5796 5812 5829 5831 5823 5827 5837 5848 5851 5861 5861 5869 5843 5815 5809 5808 5850 5884 5899 5894 5875 5864 5888
5511 5506 5505 5506 5511 5516 5520 5524 5531 5538 5545 5555 5572 5585 5597 5614 5633 5652 5660 5670 5682 5697 5760 5760 5794 5817 5818 5806 5809 5800 5792 5825 5821 5833 5863 5862 5858 5824 5814 5805 5798 5860 5905 5919 5902 5831 5883
5495 5491 5489 5491 5497 5502 5506 5512 5520 5528 5536 5544 5564 5578 5589 5605 5632 5647 5655 5653 5666 5689 5728 5759 5777 5792 5810 5785 5788 5793 5804 5837 5811 5809 5816 5821 5829 5814 5812 5818 5847 5899 5907 5915 5835 5833 5885
5483 5479 5478 5480 5483 5489 5494 5500 5508 5516 5526 5536 5555 5571 5578 5600 5632 5647 5661 5665 5676 5691 5692 5733 5759 5778 5782 5774 5784 5796 5807 5817 5824 5836 5825 5814 5808 5808 5820 5817 5813 5906 5899 5861 5878 5900 5893
5475 5471 5469 5470 5473 5478 5484 5489 5497 5506 5515 5526 5546 5567 5584 5600 5625 5647 5662 5678 5681 5698 5692 5716 5729 5746 5764 5760 5772 5789 5796 5816 5809 5794 5847 5810 5829 5822 5837 5832 5884 5905 5895 5907 5909 5890 5881